SCP
0 0 0 0 0 0 0 0 0 0 0 0 0 0 0 0 0 0 0 0 0 0 0 0 0 0 0 0 0 0 0 1 3 4 4 3 3 2 1 1 0 0 0 0
0 0 0 0 0 0 0 0 0 0 0 0 0 0 0 0 0 0 0 0 0 0 0 0 0 0 0 0 0 0 0 1 3 4 4 3 2 1 1 0 0 0 0 0
0 0 0 0 0 0 0 0 0 0 0 0 0 0 0 0 0 0 0 0 0 0 0 0 0 0 0 0 0 0 0 1 2 4 4 2 1 0 0 0 0 0 0 0
0 0 0 0 0 0 0 0 0 0 0 0 0 0 0 0 0 0 0 0 0 0 0 0 0 0 0 0 0 0 0 1 3 4 3 2 0 0 0 0 0 0 0 0
0 0 0 0 0 0 0 0 0 0 0 0 0 0 0 0 0 0 0 0 0 0 0 0 0 0 0 0 0 0 0 1 3 3 3 1 0 0 0 0 0 0 0 0
0 0 0 0 0 0 0 0 0 0 0 0 0 0 0 0 0 0 0 0 0 0 0 0 0 0 0 0 0 0 1 2 3 3 2 1 0 0 0 0 0 0 0 0
0 0 0 0 0 0 0 0 0 0 0 0 0 0 0 0 0 0 0 0 0 0 0 0 0 0 0 0 0 0 1 1 2 2 1 0 0 0 0 0 0 0 0 0
0 0 0 0 0 0 0 0 0 0 0 0 0 0 0 0 0 0 0 0 0 0 0 0 0 0 0 0 0 0 1 1 2 1 1 0 0 0 0 0 0 0 0 0
0 0 0 0 0 0 0 0 0 0 0 0 0 0 0 0 0 0 0 0 0 0 0 0 0 0 0 0 0 0 1 1 1 1 0 0 0 0 0 0 0 0 0 0
0 0 0 0 0 0 0 0 0 0 0 0 0 0 0 0 0 0 0 0 0 0 0 0 0 0 0 0 0 0 0 0 0 0 0 0 0 0 0 0 0 0 0 0
0 0 0 0 0 0 0 0 0 0 0 0 0 0 0 0 0 0 0 0 0 0 0 0 0 0 0 0 0 0 0 0 0 0 0 0 0 0 0 0 0 0 0 0
0 0 0 0 0 0 0 0 0 0 0 0 0 0 0 0 0 0 0 0 0 0 0 0 0 0 0 0 0 0 0 0 0 0 0 0 0 0 0 0 0 0 0 0
0 0 0 0 0 0 0 0 0 0 0 0 0 0 0 0 0 0 0 0 0 0 0 0 0 0 0 0 0 0 0 0 0 0 0 0 0 0 0 0 0 0 0 0
0 0 0 0 0 0 0 0 0 0 0 0 0 0 0 0 0 0 0 0 0 0 0 0 0 0 0 0 0 0 0 0 0 0 0 0 0 0 0 0 0 0 0 0
0 0 0 0 0 0 0 0 0 0 0 0 0 0 0 0 0 0 0 0 0 0 0 0 0 0 0 0 0 0 0 0 0 0 0 0 0 0 0 0 0 0 0 0
0 0 0 0 0 0 0 0 0 0 0 0 0 0 0 0 0 0 0 0 0 0 0 0 0 0 0 0 0 0 0 0 0 0 0 0 0 0 0 0 0 0 0 0
0 0 0 0 0 0 0 0 0 0 0 0 0 0 0 0 0 0 0 0 0 0 0 0 0 0 0 0 0 0 0 0 0 0 0 0 0 0 0 0 0 0 0 0
0 0 0 0 0 0 0 0 0 0 0 0 0 0 0 0 0 0 0 0 0 -0 0 0 0 0 0 0 0 0 0 0 0 0 0 0 0 0 0 0 0 0 0 0
0 0 0 0 0 0 0 0 0 0 0 0 0 0 0 0 0 0 0 0 0 -0 -0 -0 -0 -0 0 0 0 0 0 0 0 0 0 0 0 0 0 0 0 0 0 0
0 0 0 0 0 0 0 0 0 0 0 0 0 0 0 0 0 0 0 0 0 0 0 0 0 0 0 0 0 0 0 0 0 0 0 0 0 0 0 0 0 0 0 0
0 0 0 0 0 0 0 0 0 0 0 0 0 0 0 0 0 0 0 0 0 0 0 0 0 0 0 0 0 0 0 0 0 0 0 0 0 0 0 0 0 0 0 0
0 0 0 0 0 0 0 0 0 0 0 0 0 0 0 0 0 0 0 0 0 0 0 0 0 0 0 0 0 0 0 0 0 0 0 0 0 0 0 0 0 0 0 0
0 0 0 0 0 0 0 0 0 0 0 0 0 0 0 0 0 0 0 0 0 0 0 0 0 0 0 0 0 0 0 0 0 0 0 0 0 0 0 0 0 0 0 0
0 0 0 0 0 0 0 0 0 0 0 0 0 0 0 0 0 0 0 0 0 -0 -0 0 0 0 0 0 0 0 0 0 0 0 0 0 0 0 0 0 0 0 0 0
0 0 0 0 0 0 0 0 0 0 0 0 0 0 0 0 0 0 0 0 0 0 0 0 0 0 0 0 0 0 0 0 0 0 0 0 0 0 0 0 0 0 0 0
0 0 0 0 0 0 0 0 0 0 0 0 0 0 0 0 0 0 0 0 0 0 0 0 0 0 0 0 0 0 0 0 0 0 0 0 0 0 0 0 0 0 0 0
Wind_Speed
6 5 7 9 12 10 9 9 10 9 8 5 8 12 12 11 12 12 11 10 10 10 9 8 8 8 8 8 8 8 10 11 11 10 10 9 8 6 6 6 10 10 10 10
4 8 9 6 4 5 6 8 10 10 7 8 11 17 15 17 18 16 14 12 11 11 11 11 10 9 9 9 8 8 8 11 11 10 9 7 5 5 5 5 7 9 10 9
7 2 6 8 5 5 7 8 8 10 12 9 10 14 12 13 15 15 13 12 11 11 12 11 11 11 10 10 9 8 9 10 11 11 8 7 6 5 4 5 5 6 8 8
8 4 2 4 6 6 6 3 5 7 6 5 5 9 7 7 6 7 9 10 9 9 10 10 10 11 11 11 10 9 9 10 12 13 12 14 11 8 7 6 5 6 7 8
6 5 5 5 5 5 2 6 5 6 6 7 5 8 13 7 10 10 9 9 9 9 9 9 9 10 9 9 10 10 10 10 12 13 14 14 9 7 9 9 9 7 6 8
3 2 3 4 2 3 2 1 4 4 3 7 7 9 14 4 8 5 3 3 4 6 6 5 4 4 5 6 6 8 11 11 12 13 13 13 13 13 15 14 12 9 7 7
4 5 4 1 1 2 4 3 2 3 5 10 9 11 13 5 5 4 4 5 5 4 3 2 2 4 5 6 6 6 9 11 13 13 14 13 13 16 17 16 14 13 10 8
6 6 11 8 7 6 8 6 4 4 5 4 5 11 9 6 6 6 6 6 6 6 4 2 2 3 5 6 5 6 8 10 12 13 12 12 12 12 11 11 11 11 10 9
6 2 9 9 9 5 7 7 4 5 6 7 9 8 9 9 11 9 8 8 8 7 5 3 2 2 5 6 6 7 9 9 11 12 11 11 13 13 13 11 10 9 10 11
4 3 6 7 6 7 5 4 3 3 4 8 10 8 6 5 7 7 5 3 5 6 4 1 2 3 5 6 5 6 9 10 10 12 11 10 12 13 13 12 12 13 13 13
2 3 4 6 8 10 8 4 5 4 5 5 8 7 3 7 8 8 7 5 5 3 0 1 2 4 5 6 4 6 8 10 11 12 12 12 12 13 13 11 12 13 13 13
6 3 4 7 7 9 9 9 9 5 6 6 8 11 4 5 5 6 7 7 5 3 1 1 1 2 4 6 4 5 7 10 13 14 13 13 12 13 13 12 13 13 13 12
8 4 3 4 5 6 5 8 11 9 7 8 11 16 5 6 7 9 11 12 11 9 5 3 2 1 3 5 3 3 8 13 14 14 14 13 12 13 13 14 14 13 13 12
6 4 5 3 1 1 5 8 9 9 9 12 18 25 24 22 17 13 13 14 14 11 7 4 2 0 2 2 2 8 11 13 14 14 13 13 13 13 13 14 14 13 13 11
3 3 5 9 12 11 13 15 14 16 17 17 21 27 29 24 19 13 10 10 11 9 7 4 2 2 2 4 7 11 12 12 13 13 13 13 13 13 14 14 13 12 11 12
4 3 4 7 12 13 16 17 16 15 15 16 21 23 17 14 11 8 7 8 9 8 6 4 3 5 7 9 10 11 11 11 11 13 13 14 15 14 13 13 13 12 12 10
4 3 2 5 6 9 8 5 5 7 9 11 13 13 14 13 9 6 6 7 6 5 4 2 6 8 10 10 10 10 10 11 12 13 15 15 15 14 12 13 13 12 11 9
5 3 2 5 7 4 1 6 6 9 12 11 11 12 10 7 4 6 8 7 5 3 3 7 10 11 11 11 11 11 12 13 13 14 15 15 15 14 12 12 12 10 8 7
6 4 2 3 5 8 3 2 3 4 7 4 6 9 8 3 1 6 11 9 7 8 10 11 11 12 12 12 13 14 14 14 14 15 15 13 12 13 12 12 10 8 7 6
6 6 4 3 4 4 2 1 2 2 5 3 6 8 8 5 3 5 9 10 11 12 12 12 13 13 13 12 13 15 15 14 14 13 13 12 11 11 12 10 8 7 6 6
5 5 6 5 5 7 5 2 2 3 5 7 6 6 5 4 4 5 8 10 11 12 13 13 13 12 12 12 13 15 14 14 13 13 12 11 10 11 10 9 7 7 5 4
7 6 5 5 6 7 2 3 3 4 4 5 4 4 5 6 7 8 8 9 10 11 12 11 12 12 11 11 13 15 14 13 12 12 12 11 10 9 8 8 6 5 4 3
5 4 3 6 7 5 3 2 3 4 4 4 3 5 7 7 7 8 9 8 8 9 9 9 11 13 11 9 9 15 13 12 12 12 12 10 9 7 6 6 5 4 3 3
2 1 1 5 7 6 2 4 5 5 4 4 3 5 6 8 8 8 8 8 8 8 9 10 12 14 12 10 9 12 11 11 12 12 10 7 7 7 6 5 4 3 3 3
3 1 3 6 8 4 4 4 3 4 5 5 6 6 7 8 9 8 8 8 8 8 9 9 11 14 13 11 10 10 9 11 12 10 8 6 6 5 5 4 3 4 4 3
6 6 5 4 2 2 2 3 4 4 5 6 6 7 7 7 8 8 8 7 8 9 10 10 11 13 12 11 10 8 8 8 10 8 6 5 4 4 3 3 2 2 2 2
Wind_Direction
184 200 201 200 208 243 302 316 306 305 328 313 271 271 268 267 263 254 244 240 244 251 255 249 239 238 238 233 221 191 172 170 163 167 179 188 189 165 142 133 136 136 140 140
161 234 231 240 231 241 276 283 284 291 303 308 291 281 272 259 252 247 245 242 240 244 250 250 242 233 233 235 221 198 176 172 169 171 180 181 148 121 109 117 126 137 143 143
199 210 227 234 232 231 250 258 275 295 321 307 291 283 255 248 236 234 235 236 239 244 248 251 246 236 227 228 225 206 190 177 169 163 159 136 108 94 96 114 127 139 142 139
229 204 170 209 219 221 255 279 285 289 295 291 309 295 271 284 285 245 220 214 222 238 247 248 246 243 232 221 217 211 195 180 167 163 167 164 165 159 160 146 136 137 137 135
211 220 204 225 231 224 242 22 342 312 296 290 249 261 272 228 253 246 234 218 213 227 240 244 242 239 236 225 213 205 193 177 165 168 172 171 166 141 131 133 139 141 138 130
211 162 210 231 242 243 217 55 282 260 275 264 220 222 272 221 244 262 285 270 231 234 244 253 265 272 262 249 226 205 188 172 165 169 172 170 165 152 147 150 152 151 141 130
246 214 198 275 199 194 197 181 254 223 226 246 225 225 251 251 263 272 274 275 279 280 283 294 329 314 292 267 239 208 185 168 164 170 173 173 168 155 155 156 157 153 148 143
194 238 198 196 206 178 194 197 225 257 258 275 247 241 253 253 252 244 234 230 239 252 260 277 326 316 297 275 240 200 180 165 166 172 171 171 155 149 153 155 156 154 150 143
190 231 147 174 205 209 175 216 276 315 302 280 253 258 278 261 263 255 240 225 225 233 230 240 300 308 299 282 247 199 180 171 170 169 163 159 148 146 147 149 150 144 139 139
182 196 165 164 175 239 243 196 194 212 265 276 270 255 260 343 360 349 323 278 248 241 231 255 345 331 306 285 248 197 182 176 168 159 150 145 141 139 143 149 148 141 139 137
202 171 168 160 205 203 204 223 211 234 250 268 286 267 323 332 319 311 305 297 278 259 149 33 345 336 319 302 254 195 184 170 155 141 133 132 133 136 140 141 137 135 134 133
194 187 227 220 219 221 204 201 197 218 238 233 269 274 284 295 332 333 323 318 315 302 291 295 334 348 321 298 263 201 176 151 134 127 126 128 130 133 133 131 128 128 127 124
173 187 237 218 213 217 234 229 225 235 260 251 257 268 278 316 330 327 311 305 303 295 287 301 349 15 313 293 273 154 133 123 120 122 124 128 130 130 129 127 126 124 123 120
162 196 222 246 154 148 235 245 243 240 252 258 254 272 285 292 297 290 279 279 281 286 295 307 322 65 270 279 101 109 111 113 116 120 127 131 129 127 125 122 120 121 119 116
169 241 241 259 275 273 261 261 254 246 250 261 273 279 287 294 296 289 276 272 276 283 285 277 248 189 159 102 99 104 106 109 117 124 127 126 122 118 115 115 116 115 111 107
191 252 275 264 258 257 259 258 258 258 256 258 272 281 287 295 295 293 290 289 287 288 279 249 178 139 118 107 105 103 106 113 121 124 121 117 115 113 113 114 113 107 103 102
182 208 273 279 302 296 266 238 246 260 265 267 277 286 308 315 320 319 318 312 303 295 277 154 119 111 105 105 108 107 108 110 113 115 114 112 112 111 112 115 110 107 107 107
183 190 234 289 308 284 191 172 218 258 272 268 274 295 313 323 360 18 0 338 333 350 89 98 98 96 96 100 100 100 102 106 108 109 109 111 114 116 116 112 107 107 108 108
187 188 232 276 289 277 275 188 218 265 284 303 313 318 325 325 84 31 14 19 39 61 78 85 91 96 97 98 102 104 103 104 107 110 113 117 120 119 114 108 106 106 105 102
194 187 217 249 285 282 333 91 129 245 261 23 356 339 336 349 21 15 24 43 57 65 75 84 90 94 96 98 104 107 108 109 110 113 114 114 114 113 109 105 101 97 97 102
177 194 215 231 255 272 296 323 299 287 311 348 360 2 8 52 70 72 63 68 73 77 81 88 93 96 102 107 110 111 112 112 114 114 111 109 106 103 101 99 95 97 100 106
184 193 199 202 225 254 295 334 319 299 326 346 12 57 82 95 92 86 82 83 92 98 102 104 106 108 113 118 119 115 112 114 114 111 106 101 96 97 98 97 94 93 92 83
202 210 202 210 232 279 325 341 8 19 346 355 31 105 119 112 105 101 94 88 87 94 101 103 105 103 100 101 111 111 109 111 109 103 98 94 88 85 90 95 97 88 73 68
226 131 270 278 273 284 12 59 41 38 18 20 56 117 125 120 115 109 106 102 99 94 94 99 101 100 95 93 95 104 109 109 105 101 97 94 92 87 78 72 72 76 68 55
279 203 236 261 273 278 100 69 49 62 66 62 61 85 112 122 119 116 111 109 105 99 95 99 105 104 102 101 98 96 101 103 99 96 93 89 86 92 89 82 74 73 83 89
220 219 224 246 316 13 48 75 66 85 89 95 96 92 94 107 114 112 107 103 103 103 103 103 103 103 102 98 93 88 90 97 101 98 92 88 87 83 83 81 72 112 115 89